When you browse on this site, cookies collect data to enhance your experience and personalize the content and advertising you see.
Visit our Privacy Policy to learn more. By continuing to use the site, you agree to this use of cookies and data.
  • In Hungary
  • List of Countries
  • For 7 days
  • Water Temperature
  • Satellite Maps
  • Weather Map
  • News
  • Weather Widgets
  • user-avatar
    Login

    Hourly Weather Katihar

    Today, 19 April, Friday

    Time Temperature Precipitation Wind Pressure Humidity
    00:00 +31°C° 0 mm 1 mps 752 mmHg 34%
    01:00 +31°C° 0 mm 2 mps 752 mmHg 34%
    02:00 +31°C° 0 mm 2 mps 752 mmHg 34%
    03:00 +31°C° 0 mm 2 mps 751 mmHg 34%
    04:00 +31°C° 0 mm 2 mps 752 mmHg 34%
    05:00 +31°C° 0 mm 2 mps 752 mmHg 33%
    06:00 +30°C° 0 mm 4 mps 752 mmHg 36%
    07:00 +33°C° 0 mm 4 mps 752 mmHg 33%
    08:00 +34°C° 0 mm 5 mps 752 mmHg 30%
    09:00 +36°C° 0 mm 5 mps 753 mmHg 27%
    10:00 +39°C° 0 mm 5 mps 753 mmHg 24%
    11:00 +40°C° 0 mm 6 mps 753 mmHg 20%
    12:00 +41°C° 0 mm 6 mps 753 mmHg 18%
    13:00 +41°C° 0 mm 6 mps 752 mmHg 17%
    14:00 +42°C° 0 mm 6 mps 751 mmHg 15%
    15:00 +42°C° 0 mm 6 mps 751 mmHg 14%
    16:00 +41°C° 0 mm 5 mps 750 mmHg 15%
    17:00 +41°C° 0 mm 5 mps 750 mmHg 16%
    18:00 +40°C° 0 mm 4 mps 750 mmHg 18%
    19:00 +38°C° 0 mm 4 mps 750 mmHg 19%
    20:00 +37°C° 0 mm 3 mps 751 mmHg 20%
    21:00 +36°C° 0 mm 3 mps 751 mmHg 21%
    22:00 +35°C° 0 mm 3 mps 751 mmHg 22%
    23:00 +34°C° 0 mm 3 mps 751 mmHg 23%

    Tomorrow, 20 April, Saturday

    Time Temperature Precipitation Wind Pressure Humidity
    00:00 +34°C° 0 mm 3 mps 751 mmHg 24%
    01:00 +33°C° 0 mm 3 mps 751 mmHg 27%
    02:00 +33°C° 0 mm 3 mps 751 mmHg 29%
    03:00 +33°C° 0 mm 3 mps 750 mmHg 32%
    04:00 +31°C° 0 mm 3 mps 751 mmHg 34%
    05:00 +30°C° 0 mm 3 mps 751 mmHg 37%
    06:00 +30°C° 0 mm 2 mps 751 mmHg 40%
    07:00 +31°C° 0 mm 2 mps 751 mmHg 35%
    08:00 +34°C° 0 mm 2 mps 752 mmHg 30%
    09:00 +36°C° 0 mm 2 mps 752 mmHg 26%
    10:00 +37°C° 0 mm 3 mps 752 mmHg 23%
    11:00 +39°C° 0 mm 3 mps 752 mmHg 20%
    12:00 +41°C° 0 mm 4 mps 752 mmHg 17%
    13:00 +41°C° 0 mm 4 mps 751 mmHg 17%
    14:00 +40°C° 0 mm 4 mps 750 mmHg 18%
    15:00 +40°C° 0 mm 4 mps 750 mmHg 18%
    16:00 +40°C° 0 mm 4 mps 749 mmHg 18%
    17:00 +40°C° 0 mm 4 mps 749 mmHg 19%
    18:00 +38°C° 0 mm 4 mps 749 mmHg 19%
    19:00 +37°C° 0 mm 4 mps 749 mmHg 20%
    20:00 +36°C° 0 mm 3 mps 750 mmHg 21%
    21:00 +35°C° 0 mm 3 mps 750 mmHg 22%
    22:00 +35°C° 0 mm 3 mps 750 mmHg 23%
    23:00 +34°C° 0 mm 2 mps 750 mmHg 24%

    Day after tomorrow, 21 April, Sunday

    Time Temperature Precipitation Wind Pressure Humidity
    00:00 +34°C° 0 mm 2 mps 750 mmHg 24%
    01:00 +32°C° 0 mm 2 mps 750 mmHg 27%
    02:00 +31°C° 0 mm 2 mps 750 mmHg 29%
    03:00 +30°C° 0 mm 2 mps 749 mmHg 31%
    04:00 +30°C° 0 mm 2 mps 749 mmHg 33%
    05:00 +29°C° 0 mm 2 mps 750 mmHg 34%
    06:00 +28°C° 0 mm 2 mps 750 mmHg 36%
    07:00 +30°C° 0 mm 3 mps 751 mmHg 34%
    08:00 +33°C° 0 mm 3 mps 751 mmHg 32%
    09:00 +34°C° 0 mm 4 mps 752 mmHg 30%
    10:00 +36°C° 0 mm 3 mps 752 mmHg 28%
    11:00 +38°C° 0 mm 2 mps 751 mmHg 25%
    12:00 +40°C° 0 mm 2 mps 751 mmHg 22%
    13:00 +40°C° 0 mm 2 mps 750 mmHg 20%
    14:00 +41°C° 0 mm 2 mps 750 mmHg 18%
    15:00 +43°C° 0 mm 3 mps 749 mmHg 16%
    16:00 +41°C° 0 mm 2 mps 749 mmHg 17%
    17:00 +40°C° 0 mm 1 mps 748 mmHg 18%
    18:00 +39°C° 0 mm 1 mps 748 mmHg 19%
    19:00 +39°C° 0 mm 2 mps 749 mmHg 20%
    20:00 +38°C° 0 mm 2 mps 749 mmHg 21%
    21:00 +37°C° 0 mm 3 mps 750 mmHg 22%
    22:00 +36°C° 0 mm 4 mps 750 mmHg 26%
    23:00 +35°C° 0 mm 4 mps 750 mmHg 29%

    22 April, Monday

    Time Temperature Precipitation Wind Pressure Humidity
    00:00 +34°C° 0 mm 4 mps 750 mmHg 32%
    01:00 +33°C° 0 mm 4 mps 749 mmHg 34%
    02:00 +33°C° 0 mm 4 mps 749 mmHg 35%
    03:00 +32°C° 0 mm 4 mps 749 mmHg 37%
    04:00 +30°C° 0.8 mm 5 mps 749 mmHg 41%
    05:00 +29°C° 0.8 mm 5 mps 749 mmHg 45%
    06:00 +28°C° 0.8 mm 5 mps 750 mmHg 49%
    07:00 +30°C° 0 mm 5 mps 750 mmHg 45%
    08:00 +33°C° 0 mm 6 mps 751 mmHg 40%
    09:00 +35°C° 0 mm 6 mps 752 mmHg 36%
    10:00 +36°C° 0.1 mm 5 mps 751 mmHg 34%
    11:00 +39°C° 0.1 mm 5 mps 751 mmHg 31%
    12:00 +40°C° 0.1 mm 5 mps 751 mmHg 29%
    13:00 +41°C° 0 mm 4 mps 750 mmHg 28%
    14:00 +40°C° 0 mm 3 mps 750 mmHg 27%
    15:00 +40°C° 0 mm 3 mps 749 mmHg 26%
    16:00 +40°C° 0 mm 3 mps 749 mmHg 26%
    17:00 +40°C° 0 mm 2 mps 749 mmHg 26%
    18:00 +40°C° 0 mm 2 mps 749 mmHg 26%
    19:00 +38°C° 0 mm 3 mps 750 mmHg 29%
    20:00 +37°C° 0 mm 4 mps 750 mmHg 32%
    21:00 +35°C° 0 mm 6 mps 751 mmHg 35%
    22:00 +34°C° 0 mm 5 mps 751 mmHg 38%
    23:00 +33°C° 0 mm 4 mps 751 mmHg 41%

    23 April, Tuesday

    Time Temperature Precipitation Wind Pressure Humidity
    00:00 +32°C° 0 mm 4 mps 751 mmHg 44%
    01:00 +32°C° 0 mm 4 mps 751 mmHg 46%
    02:00 +30°C° 0 mm 4 mps 751 mmHg 48%
    03:00 +30°C° 0 mm 4 mps 750 mmHg 50%
    04:00 +29°C° 0 mm 4 mps 751 mmHg 52%
    05:00 +29°C° 0 mm 4 mps 751 mmHg 55%
    06:00 +29°C° 0 mm 4 mps 751 mmHg 57%
    07:00 +30°C° 0 mm 5 mps 752 mmHg 53%
    08:00 +33°C° 0 mm 5 mps 753 mmHg 48%
    09:00 +34°C° 0 mm 6 mps 753 mmHg 44%
    10:00 +36°C° 0 mm 6 mps 753 mmHg 40%
    11:00 +38°C° 0 mm 6 mps 753 mmHg 36%
    12:00 +40°C° 0 mm 6 mps 753 mmHg 32%
    13:00 +41°C° 0 mm 5 mps 752 mmHg 30%
    14:00 +41°C° 0 mm 4 mps 751 mmHg 28%
    15:00 +42°C° 0 mm 3 mps 750 mmHg 27%
    16:00 +40°C° 0 mm 3 mps 750 mmHg 27%
    17:00 +41°C° 0 mm 4 mps 750 mmHg 28%
    18:00 +41°C° 0 mm 4 mps 750 mmHg 29%
    19:00 +38°C° 0.4 mm 3 mps 751 mmHg 33%
    20:00 +36°C° 0.4 mm 3 mps 751 mmHg 37%
    21:00 +34°C° 0.4 mm 2 mps 752 mmHg 42%
    22:00 +34°C° 0 mm 2 mps 752 mmHg 42%
    23:00 +34°C° 0 mm 2 mps 752 mmHg 43%

    24 April, Wednesday

    Time Temperature Precipitation Wind Pressure Humidity
    00:00 +32°C° 0 mm 2 mps 752 mmHg 44%
    01:00 +32°C° 0 mm 2 mps 752 mmHg 46%
    02:00 +31°C° 0 mm 2 mps 751 mmHg 49%
    03:00 +31°C° 0 mm 2 mps 751 mmHg 51%
    04:00 +30°C° 0 mm 3 mps 752 mmHg 53%
    05:00 +30°C° 0 mm 3 mps 752 mmHg 55%
    06:00 +29°C° 0 mm 4 mps 752 mmHg 57%
    07:00 +32°C° 0 mm 4 mps 753 mmHg 52%
    08:00 +34°C° 0 mm 5 mps 754 mmHg 47%
    09:00 +35°C° 0 mm 5 mps 754 mmHg 42%
    10:00 +37°C° 0 mm 5 mps 754 mmHg 38%
    11:00 +39°C° 0 mm 5 mps 753 mmHg 34%
    12:00 +41°C° 0 mm 4 mps 753 mmHg 30%
    13:00 +42°C° 0 mm 4 mps 752 mmHg 28%
    14:00 +42°C° 0 mm 3 mps 751 mmHg 26%
    15:00 +43°C° 0 mm 3 mps 750 mmHg 24%
    16:00 +42°C° 0 mm 2 mps 750 mmHg 24%
    17:00 +42°C° 0 mm 2 mps 750 mmHg 24%
    18:00 +42°C° 0 mm 2 mps 750 mmHg 24%
    19:00 +40°C° 0 mm 3 mps 750 mmHg 26%
    20:00 +39°C° 0 mm 3 mps 751 mmHg 29%
    21:00 +38°C° 0 mm 4 mps 751 mmHg 31%
    22:00 +37°C° 0 mm 4 mps 751 mmHg 33%
    23:00 +36°C° 0 mm 4 mps 751 mmHg 35%
    Show more